Theta_e
339 341 343 343 342 342 341 340 338 337 336 337 339 341 343 343 340 340 341 341 339 339 337 337 337 337 337 336 337 336 336 336 335 336 337 337 336 336 337 337 336 336 336 335 335 333 331 330 327 324 322 320
337 339 341 342 341 341 341 341 340 338 338 339 339 339 339 339 340 340 340 341 341 340 339 338 337 337 336 336 335 335 335 335 335 336 336 336 336 336 336 336 336 335 335 334 334 332 330 328 326 323 322 318
334 334 338 339 339 340 340 340 339 339 337 337 337 336 334 333 332 332 334 336 337 337 336 335 334 337 336 335 335 335 334 334 335 335 335 335 335 335 335 335 335 335 335 334 333 331 328 323 322 320 319 316
331 332 332 335 337 337 338 337 336 335 333 331 330 330 329 327 326 325 326 327 330 332 336 333 330 333 335 334 334 333 334 333 334 334 334 335 335 334 334 334 333 333 333 333 331 329 326 322 320 316 314 314
332 332 330 331 331 332 334 333 332 332 326 323 323 323 322 323 323 322 324 325 326 324 328 325 327 332 335 334 334 333 332 332 333 333 333 334 334 334 333 329 328 328 331 331 331 327 322 318 318 315 314 314
334 332 332 333 332 329 329 327 325 324 324 328 321 321 322 322 323 322 321 323 329 324 325 325 325 329 334 334 333 334 332 332 332 332 333 333 334 333 330 323 313 313 318 323 325 322 318 316 315 315 315 314
334 333 333 333 332 328 325 327 325 324 325 322 322 321 322 321 322 322 322 323 325 325 323 325 324 329 331 332 331 333 333 332 331 331 332 332 333 332 327 314 312 313 312 313 317 316 316 315 315 316 316 314
334 334 334 333 332 328 326 325 325 324 324 323 322 323 322 321 320 320 322 326 327 327 322 322 323 326 327 328 327 329 329 330 331 332 332 331 331 326 319 315 314 314 315 316 314 314 314 314 314 315 315 315
335 335 334 333 332 329 328 326 326 325 324 324 323 323 323 323 320 320 320 322 322 321 322 320 320 322 322 320 319 322 319 319 320 321 319 317 317 314 314 315 317 315 317 317 315 313 314 316 314 314 314 315
334 335 334 334 333 331 329 328 327 326 325 325 324 323 324 323 322 321 322 321 321 321 321 321 320 321 319 318 319 318 320 317 316 315 315 315 313 314 313 314 315 315 315 318 315 313 312 313 312 313 314 315
333 335 335 335 334 333 331 330 328 327 326 326 325 324 323 322 321 320 321 321 320 320 320 321 320 319 319 320 319 319 319 317 317 315 315 313 315 313 312 312 312 313 313 313 313 311 311 311 312 311 315 315
333 334 334 334 332 332 330 329 328 328 327 327 326 324 324 322 323 322 321 321 321 321 320 320 320 320 318 320 318 319 319 318 316 315 314 313 312 313 312 312 312 312 313 312 312 313 311 311 312 312 312 316
334 333 333 333 332 331 328 330 328 328 328 327 326 325 324 321 321 322 322 321 322 320 320 320 320 319 320 319 320 319 318 319 318 316 315 316 315 312 313 311 313 312 312 310 310 312 312 311 310 310 310 313
334 332 332 333 332 331 328 330 329 327 327 327 326 325 325 322 322 322 322 321 320 320 320 320 320 320 319 319 320 319 319 318 318 317 314 314 313 315 313 312 314 312 312 314 312 311 311 311 313 313 311 310
334 333 332 332 333 332 330 330 330 327 327 326 326 326 325 324 323 321 321 321 321 319 320 320 320 320 320 319 319 319 320 318 319 318 317 316 315 315 314 314 313 312 314 313 314 313 312 314 311 313 314 311
333 333 333 332 333 332 331 330 330 328 327 325 326 326 325 324 323 322 321 320 320 320 318 318 320 321 319 320 319 319 320 317 318 318 317 315 315 314 314 315 312 310 312 313 314 311 314 315 314 313 313 314
333 333 333 331 332 332 332 331 330 329 327 326 326 326 325 324 323 322 322 320 321 320 319 318 318 318 319 320 319 318 318 317 316 314 313 312 311 312 311 311 314 310 309 312 313 311 313 313 314 314 314 314
331 332 332 331 332 331 331 331 330 329 328 327 326 326 325 325 324 323 322 322 319 320 320 320 319 319 319 320 318 318 317 316 313 315 311 314 311 314 315 315 314 309 311 309 308 309 310 309 312 312 314 314
331 331 331 330 330 331 330 330 330 329 328 327 327 326 325 325 324 323 323 322 321 319 320 320 319 321 322 323 320 318 316 317 315 316 316 313 315 315 314 312 309 308 311 309 311 311 310 311 311 310 312 314
330 330 331 330 327 330 329 329 329 328 328 328 327 327 326 325 324 324 324 323 322 320 319 319 319 319 322 323 322 321 317 317 318 317 316 315 316 315 314 311 312 309 311 311 311 311 311 311 311 311 311 312
328 329 330 330 330 331 330 330 329 328 327 327 327 327 326 325 325 324 325 326 326 324 321 319 321 320 323 323 322 322 321 319 319 318 317 314 312 314 316 314 313 313 312 312 312 311 310 311 310 310 311 312
329 329 329 329 330 329 330 330 330 330 329 328 328 327 327 326 325 326 327 328 328 327 326 323 321 322 324 323 323 322 321 320 319 318 317 316 313 314 314 313 313 313 313 312 312 310 309 310 307 310 311 311
328 328 328 326 328 328 329 329 329 330 329 329 328 327 328 327 328 328 329 329 328 327 326 326 324 322 320 322 322 322 321 319 317 316 315 315 315 311 313 314 314 313 312 311 309 309 310 310 310 310 308 306
327 326 326 326 321 324 326 328 327 328 329 329 328 326 326 327 328 329 330 330 329 328 327 326 326 325 324 323 321 319 317 315 316 318 315 313 313 312 309 310 313 312 311 311 310 309 309 308 309 308 308 307
327 326 324 322 325 326 326 327 326 326 326 327 328 327 326 326 327 327 328 329 329 329 326 327 325 325 325 323 321 319 317 318 319 318 316 313 309 312 313 314 312 310 310 311 311 310 308 310 310 308 307 308
327 328 328 327 327 325 324 324 324 326 325 326 326 326 326 326 326 327 327 326 329 329 329 327 326 325 325 324 323 322 320 320 316 317 315 312 311 312 315 314 312 312 311 307 308 306 306 308 309 309 307 306
327 328 327 327 323 325 318 317 324 324 324 324 325 325 325 325 326 326 326 327 325 327 327 328 327 326 326 325 323 322 321 318 318 319 318 315 316 316 311 312 312 312 314 311 304 305 305 304 303 305 303 299
328 328 325 322 320 320 323 319 317 318 317 321 320 322 322 323 325 326 328 329 328 328 328 328 327 327 325 324 323 324 323 321 319 317 317 316 315 316 313 310 312 311 312 312 308 307 304 302 300 302 301 295
326 322 319 318 315 315 316 315 314 315 316 318 319 320 317 320 320 324 325 327 327 324 326 325 325 325 325 325 324 323 323 321 321 321 319 317 315 314 315 314 311 308 310 311 313 311 304 302 298 300 302 304
324 323 324 319 319 319 316 318 316 318 320 316 316 319 314 314 317 321 322 323 324 325 324 326 327 326 325 323 322 321 322 322 320 319 318 318 318 316 316 317 315 312 308 310 310 312 312 312 308 307 304 307
322 322 323 322 322 322 320 319 317 312 312 316 312 315 314 316 313 317 321 319 324 327 327 327 327 325 323 323 323 320 320 321 321 321 319 318 316 317 315 314 313 313 311 306 307 307 308 307 307 308 306 303
Wind_Speed
8 8 8 8 9 8 10 10 10 10 9 10 10 10 10 10 10 9 10 11 10 10 11 12 11 11 11 11 11 11 11 11 11 11 10 10 8 8 8 8 8 8 9 9 9 9 9 8 6 7 6 5
8 8 9 9 9 9 9 9 9 9 9 9 9 8 7 8 8 9 8 8 9 10 11 9 9 10 10 10 10 11 11 11 10 10 9 8 8 7 6 7 7 8 8 8 8 7 9 7 6 6 6 4
6 9 8 9 9 9 9 9 9 8 8 9 8 7 8 9 9 8 9 9 10 10 10 10 8 8 8 9 9 9 10 10 10 9 8 8 7 6 5 5 6 7 7 6 6 7 8 8 6 5 4 3
4 7 8 8 9 9 9 9 9 9 9 9 9 8 8 8 7 7 6 9 7 9 10 9 6 7 6 8 8 8 9 9 8 8 7 7 5 5 4 4 4 4 5 5 5 6 7 7 5 2 2 3
4 6 8 7 9 10 9 9 9 9 9 8 8 8 8 7 5 4 4 5 4 7 6 8 7 6 6 7 7 7 7 7 8 8 7 5 4 3 3 4 4 4 3 2 4 5 6 6 4 1 2 2
5 5 6 6 5 5 7 7 7 6 5 6 4 7 6 4 4 5 3 4 5 4 4 6 7 6 6 6 5 5 6 7 6 6 7 4 3 2 2 4 2 3 5 6 4 5 6 4 2 1 1 3
5 6 5 6 5 4 5 6 5 4 4 4 4 4 4 5 4 4 4 4 5 4 5 5 7 7 7 6 5 4 5 4 5 5 5 4 3 1 2 1 3 3 3 4 6 5 4 3 2 1 1 2
5 5 5 4 5 4 5 5 5 4 4 5 5 5 4 4 4 4 5 5 8 6 4 5 7 8 7 6 5 5 4 5 4 4 2 2 1 2 1 2 3 3 3 4 3 4 4 4 2 1 2 3
6 5 5 5 5 5 5 5 5 5 5 5 5 5 5 4 3 3 3 4 4 5 5 4 4 4 4 3 3 4 3 2 2 2 1 0 1 1 2 2 4 3 4 4 3 2 3 3 3 1 2 4
7 7 6 6 6 6 5 5 5 5 5 5 5 5 5 5 3 4 4 3 4 4 5 5 5 4 4 3 4 2 3 2 2 2 2 2 3 3 2 3 4 4 4 4 4 3 3 3 2 2 3 3
6 7 6 6 6 6 6 5 5 5 5 5 5 5 5 6 5 5 5 4 4 5 4 5 5 5 4 4 4 4 4 4 4 3 4 3 4 3 2 3 3 4 3 3 3 2 2 3 2 2 4 3
7 7 7 7 6 6 6 6 6 6 6 6 6 5 5 6 6 6 5 5 5 5 4 5 5 5 4 5 5 4 4 4 3 3 3 3 3 3 3 3 3 3 3 3 2 2 3 2 2 3 4 3
7 7 7 6 6 7 6 6 6 6 5 6 5 5 5 5 6 5 6 6 6 5 6 5 5 5 5 4 5 4 5 4 4 4 4 4 4 3 3 3 3 3 3 2 2 2 3 3 3 3 3 4
7 7 7 7 7 7 6 6 6 5 5 6 5 5 5 6 7 7 7 6 5 6 6 5 5 5 5 5 5 4 5 5 5 5 4 4 4 4 4 3 5 2 3 4 3 2 3 3 4 4 3 3
8 8 8 8 7 7 7 7 6 6 6 6 6 6 6 5 6 7 6 6 6 6 6 6 5 6 5 5 5 5 5 5 5 5 5 6 6 5 4 6 4 3 4 4 5 4 3 5 3 5 4 3
8 8 8 8 7 7 7 7 6 7 6 6 6 6 5 5 5 6 6 6 5 6 5 5 6 6 5 6 5 5 6 5 5 6 6 4 4 4 3 4 3 2 3 5 5 4 5 5 5 6 5 5
8 8 7 8 8 7 7 7 7 7 7 7 7 6 6 6 5 5 6 6 6 5 5 4 5 5 6 6 6 6 5 5 4 4 3 3 1 2 2 3 5 2 2 4 5 4 5 4 5 5 6 6
8 8 7 7 7 7 7 7 7 7 6 7 7 7 7 6 6 5 5 6 5 5 5 4 4 4 5 6 5 5 5 6 4 4 3 5 2 5 5 5 5 3 4 4 3 4 5 4 6 5 6 6
9 7 7 7 6 7 7 7 7 6 6 6 6 7 7 7 6 6 5 5 6 5 5 5 5 5 5 5 5 4 4 4 3 4 5 3 4 3 4 4 3 3 4 4 6 5 3 5 6 4 6 6
8 8 8 7 6 6 6 6 6 6 6 6 6 6 6 6 6 6 5 5 5 6 5 5 5 5 4 3 3 5 5 3 4 4 3 3 4 4 5 4 5 3 5 5 6 6 6 6 5 6 6 6
6 7 7 7 7 7 7 7 6 5 5 5 5 5 6 6 6 6 5 5 5 5 4 4 4 4 5 4 4 4 5 6 6 6 6 5 5 4 5 3 4 5 5 6 6 6 6 6 6 6 6 7
8 7 7 7 7 6 7 7 6 6 5 6 6 5 6 5 6 6 6 6 5 5 6 4 4 3 3 4 4 5 3 5 4 4 4 5 4 5 4 4 5 6 6 5 6 6 7 7 6 7 7 6
7 7 6 5 6 6 7 6 6 6 6 6 6 6 6 6 6 6 6 6 6 5 5 5 5 3 3 3 4 5 5 3 2 2 4 6 6 3 5 5 5 6 5 5 6 7 9 6 6 6 5 4
7 6 7 7 4 5 7 7 6 6 7 6 6 6 6 6 6 6 7 7 6 7 6 5 6 7 5 4 4 4 4 5 6 9 6 4 5 5 3 3 5 4 4 5 5 8 8 6 6 6 6 5
9 8 7 6 9 9 7 7 6 6 5 6 6 6 6 6 6 6 6 6 6 6 5 5 4 4 5 5 4 5 5 6 6 5 4 4 3 6 5 5 5 4 3 4 6 6 6 8 6 7 6 8
10 9 10 10 10 8 7 7 7 8 6 7 6 7 7 6 6 6 6 6 6 6 6 6 6 6 6 5 4 6 6 6 4 4 3 3 3 4 6 5 4 4 4 2 5 4 6 5 6 7 5 7
11 10 9 9 6 8 5 4 5 6 6 6 7 7 7 7 6 6 6 6 6 6 5 6 7 7 7 6 6 5 6 6 6 6 6 5 6 6 3 4 1 3 7 5 1 0 2 4 6 3 3 3
11 10 7 5 5 5 6 5 4 4 4 5 5 6 6 6 6 6 7 7 7 7 7 7 7 6 5 6 6 7 7 6 6 4 4 5 6 5 3 2 5 4 6 5 2 3 2 1 1 8 3 2
9 6 5 4 2 2 2 1 3 5 6 6 6 6 6 6 5 6 6 6 6 6 6 5 5 5 6 7 7 5 5 5 7 7 7 6 4 5 6 6 3 2 5 6 6 4 1 3 1 5 5 6
9 10 10 8 8 8 6 8 6 10 11 7 7 8 4 4 4 5 5 5 6 6 5 5 6 5 5 3 3 4 5 6 5 5 5 7 8 8 8 7 5 4 1 4 4 5 5 4 4 6 3 3
9 8 9 12 13 11 11 10 7 2 2 5 4 4 5 5 4 4 6 5 5 5 5 5 5 4 4 4 4 3 3 3 5 5 4 0 1 4 3 4 5 6 3 0 3 4 7 6 4 1 3 4
Wind_Direction
133 126 123 119 115 117 123 125 122 122 123 131 99 83 84 77 82 84 88 88 94 100 102 99 98 103 104 104 102 100 102 103 104 101 97 93 89 72 63 61 55 50 50 49 47 54 55 53 78 89 93 91
138 135 130 121 115 115 119 124 126 125 127 104 91 86 78 86 85 88 87 83 81 94 98 94 93 99 103 102 105 102 102 105 105 104 102 100 94 79 60 53 47 41 40 36 35 44 51 47 81 98 101 98
143 140 135 131 130 124 118 116 118 120 111 110 104 94 92 90 89 89 88 91 91 93 98 94 91 95 105 109 106 110 110 111 111 109 108 108 103 83 70 57 45 35 32 27 26 34 47 45 79 97 103 115
146 144 139 137 133 129 127 127 126 127 123 120 118 113 107 100 92 86 88 93 95 104 104 101 100 98 100 113 115 115 116 117 120 117 117 112 106 97 81 72 57 30 27 23 15 23 44 47 67 81 95 121
147 149 140 134 133 134 135 134 134 132 126 125 128 123 120 111 103 102 102 95 104 103 109 117 113 114 116 118 117 114 122 121 124 130 124 126 119 102 62 27 17 10 14 13 4 19 25 59 42 75 112 122
148 144 148 139 141 141 138 137 135 137 145 142 143 139 134 130 130 122 114 116 112 113 119 120 125 115 114 117 117 129 127 135 135 136 142 137 135 106 68 19 4 349 339 342 353 5 8 55 42 36 144 132
155 158 148 152 148 149 149 155 151 156 153 156 156 158 154 153 147 141 138 138 142 137 138 137 132 129 126 132 135 137 144 140 143 153 157 154 144 136 78 6 345 339 331 324 328 356 355 1 60 50 200 156
162 164 159 158 160 160 161 166 167 167 166 168 170 170 167 162 159 149 151 152 142 134 134 146 143 143 145 146 148 142 135 150 159 180 176 110 122 34 343 320 314 320 315 309 322 339 340 325 351 126 202 185
174 172 166 170 171 170 172 175 176 177 178 179 180 179 174 171 158 152 154 148 143 143 147 146 150 152 152 151 150 136 142 148 175 152 179 333 335 275 276 289 286 302 298 287 290 323 317 315 308 178 193 200
176 173 179 178 179 176 182 180 183 180 188 188 188 184 181 167 155 156 159 164 157 157 160 161 169 180 170 168 181 170 164 182 184 230 224 224 236 245 226 249 276 276 260 274 280 268 270 275 290 197 195 191
175 187 184 183 182 180 188 187 183 190 193 198 191 189 176 167 174 166 169 179 174 170 173 175 182 187 185 186 192 194 174 194 205 215 233 229 228 230 204 237 255 261 252 252 260 296 290 266 252 249 201 188
183 188 186 188 183 192 191 185 194 195 198 195 195 193 180 180 172 172 173 186 181 187 179 189 192 190 192 201 208 194 185 196 213 223 237 254 265 253 255 265 240 240 251 250 243 263 297 300 266 244 223 198
185 186 186 186 188 196 189 195 199 197 196 202 198 196 184 171 167 175 178 182 192 175 190 196 193 189 205 208 212 182 210 199 211 219 219 230 240 236 254 267 283 252 248 241 250 246 286 291 285 268 254 223
184 185 187 191 192 196 184 203 199 194 194 209 196 198 191 184 164 175 182 188 189 178 197 199 199 196 208 211 213 187 209 212 206 218 214 226 241 244 246 249 247 259 284 294 289 280 260 274 271 276 261 247
189 182 190 192 193 190 193 198 195 197 197 201 207 199 194 191 174 174 184 188 186 196 195 199 199 209 205 216 221 202 217 206 213 216 209 204 213 220 229 236 239 232 258 270 289 273 261 262 268 271 264 256
189 189 191 192 191 195 197 194 194 196 197 198 203 203 190 193 188 175 184 185 192 193 195 201 205 212 201 218 218 208 213 208 211 212 215 213 215 216 214 237 254 245 239 262 257 270 271 273 275 270 270 265
191 188 190 191 194 194 196 198 195 195 197 197 199 203 195 190 189 181 174 187 187 197 201 202 210 211 211 213 205 198 203 199 207 218 227 249 243 243 241 262 265 265 238 251 261 260 260 260 260 258 266 264
188 190 188 189 192 192 191 198 197 201 197 192 195 196 202 195 192 190 183 171 187 185 195 208 211 222 221 216 194 182 178 188 186 202 206 232 193 229 216 232 247 255 268 261 263 257 252 255 250 253 257 253
189 187 186 185 187 191 189 193 198 196 195 190 189 188 199 200 197 196 188 183 170 176 176 191 210 219 236 225 193 178 184 186 188 185 209 198 212 226 229 242 265 243 254 266 274 267 265 257 259 262 256 260
189 187 188 186 186 184 189 191 197 197 196 192 187 187 193 199 201 200 198 188 174 174 179 177 192 213 219 249 243 188 178 172 193 207 223 224 209 229 252 248 268 244 259 262 267 268 270 264 265 265 266 262
189 187 188 188 188 190 188 194 200 200 195 194 195 195 196 196 197 202 202 201 188 180 192 184 183 203 205 195 212 244 188 184 203 195 205 219 218 210 243 234 260 275 258 263 261 269 271 267 270 267 262 262
186 188 184 186 189 189 196 202 200 198 191 199 200 197 203 195 195 199 202 205 202 201 193 194 197 202 198 188 194 211 203 203 193 203 201 233 221 205 210 237 238 255 258 254 267 272 268 269 258 254 256 254
180 176 178 180 183 195 205 207 208 199 200 200 195 200 201 197 198 199 198 200 203 207 206 199 198 208 212 194 199 199 202 205 199 226 216 216 234 211 214 221 226 237 248 262 263 266 265 265 261 262 261 261
174 174 179 184 200 212 212 208 207 210 207 197 200 200 198 200 204 205 199 199 202 203 203 212 207 209 225 220 193 193 189 210 210 219 213 232 233 248 266 252 250 241 248 261 263 267 275 261 263 266 254 253
181 184 190 198 200 207 201 206 205 210 209 206 205 197 197 198 203 204 208 205 196 204 199 208 229 229 219 217 200 207 222 226 233 222 202 222 205 234 252 260 224 244 207 264 284 275 277 285 251 251 254 249
191 194 197 195 205 199 195 197 201 212 207 207 205 202 197 199 199 200 203 204 207 206 200 202 209 213 219 216 219 220 225 230 221 211 212 208 260 208 226 250 202 215 125 245 232 285 313 304 297 259 252 253
196 199 198 193 196 187 202 221 209 205 203 198 204 206 202 198 195 196 202 203 205 208 212 212 206 208 209 211 221 230 236 221 216 207 211 205 225 254 218 246 254 197 186 234 174 138 342 299 336 337 308 306
200 194 188 192 171 181 179 191 199 205 211 207 206 215 208 207 194 195 200 200 202 207 209 207 211 213 211 218 217 224 234 226 226 205 212 216 231 234 267 220 251 190 202 202 129 298 207 248 59 312 309 302
187 161 160 164 124 121 169 43 154 185 225 210 206 209 204 213 198 198 201 200 202 201 211 213 217 216 215 214 218 219 228 219 214 212 210 197 198 200 216 251 244 235 192 210 204 183 315 334 4 227 282 339
173 179 176 170 179 191 197 209 191 203 206 195 201 208 195 200 192 190 194 193 194 200 205 216 219 225 237 219 200 198 217 225 226 218 190 196 199 212 215 231 257 264 262 237 222 227 221 193 249 292 266 329
175 180 186 189 196 200 202 207 221 206 163 184 202 170 178 186 183 182 179 189 193 201 205 211 221 224 215 209 214 215 233 247 231 230 217 171 199 237 226 206 237 249 228 109 261 236 241 258 263 282 318 279